Location: Αθήνα
(37.9839°N, 23.7283°E)
Time: 00:26:22
(UTC+03:00)

ISS - Pass Details

Date: 27 June 2024
Orbit: 410 x 424 km, 51.6° (Epoch: 18 July)

Event Time Altitude Azimuth Distance (km) Brightness Sun altitude
Exits shadow 03:12:27 33° 62° (ENE) 722 -2.2 -24.0°
Drops below altitude 10° 03:14:26 10° 54° (NE) 1,487 -0.1 -23.8°
Sets 03:16:32 0° 53° (NE) 2,357 1.1 -23.6°
